QPF
0.00 0.00 0.00 0.00 0.00 0.00 0.00 0.00 0.00 0.00 0.01 0.01 0.01 0.01 0.02 0.02 0.03 0.04 0.02 0.01 0.02 0.02 0.01 0.01 0.01 0.01 0.01 0.02 0.02 0.02 0.01 0.00 0.00 0.00 0.00 0.00 0.00 0.00 0.00 0.00 0.01 0.01 0.01 0.01 0.01 0.01 0.01 0.01 0.00
0.00 0.00 0.00 0.00 0.00 0.00 0.00 0.00 0.00 0.00 0.01 0.01 0.01 0.01 0.02 0.02 0.02 0.04 0.03 0.02 0.02 0.02 0.02 0.01 0.01 0.01 0.01 0.01 0.01 0.01 0.01 0.01 0.01 0.00 0.00 0.00 0.00 0.00 0.00 0.00 0.01 0.01 0.01 0.01 0.01 0.01 0.01 0.01 0.00
0.00 0.00 0.00 0.00 0.00 0.00 0.00 0.00 0.00 0.01 0.01 0.01 0.02 0.02 0.02 0.02 0.03 0.05 0.03 0.02 0.02 0.01 0.03 0.03 0.02 0.02 0.01 0.01 0.01 0.01 0.01 0.02 0.01 0.01 0.01 0.01 0.00 0.01 0.01 0.01 0.01 0.01 0.01 0.01 0.01 0.01 0.00 0.00 0.01
0.00 0.00 0.00 0.00 0.00 0.00 0.00 0.00 0.00 0.01 0.01 0.02 0.04 0.04 0.02 0.03 0.03 0.04 0.03 0.02 0.01 0.01 0.02 0.02 0.03 0.02 0.01 0.01 0.01 0.02 0.02 0.02 0.02 0.01 0.01 0.01 0.01 0.01 0.01 0.01 0.01 0.01 0.01 0.01 0.01 0.01 0.01 0.00 0.00
0.00 0.00 0.00 0.00 0.00 0.00 0.01 0.01 0.00 0.00 0.01 0.02 0.02 0.02 0.02 0.03 0.04 0.05 0.05 0.04 0.02 0.02 0.03 0.03 0.04 0.04 0.03 0.02 0.02 0.03 0.02 0.02 0.01 0.01 0.01 0.01 0.01 0.01 0.01 0.01 0.01 0.01 0.01 0.01 0.01 0.01 0.01 0.01 0.01
0.00 0.00 0.00 0.00 0.00 0.00 0.00 0.00 0.00 0.00 0.01 0.01 0.01 0.03 0.05 0.06 0.04 0.04 0.06 0.06 0.04 0.02 0.03 0.04 0.05 0.07 0.06 0.04 0.04 0.04 0.04 0.03 0.02 0.02 0.02 0.02 0.01 0.02 0.02 0.01 0.01 0.02 0.02 0.02 0.02 0.01 0.01 0.01 0.01
0.00 0.00 0.00 0.00 0.00 0.00 0.00 0.00 0.00 0.00 0.01 0.01 0.00 0.01 0.04 0.06 0.06 0.05 0.06 0.08 0.05 0.03 0.02 0.02 0.04 0.07 0.08 0.06 0.05 0.07 0.08 0.05 0.04 0.05 0.03 0.03 0.03 0.02 0.02 0.02 0.02 0.02 0.02 0.02 0.02 0.01 0.01 0.01 0.01
0.00 0.00 0.00 0.00 0.00 0.00 0.00 0.00 0.00 0.01 0.01 0.01 0.01 0.01 0.03 0.04 0.04 0.04 0.08 0.10 0.07 0.05 0.04 0.04 0.04 0.04 0.06 0.07 0.06 0.06 0.09 0.09 0.07 0.06 0.04 0.04 0.04 0.03 0.03 0.03 0.03 0.03 0.03 0.03 0.04 0.03 0.02 0.02 0.02
0.00 0.00 0.00 0.00 0.00 0.00 0.00 0.00 0.00 0.00 0.00 0.01 0.02 0.02 0.02 0.02 0.03 0.04 0.09 0.10 0.09 0.07 0.06 0.05 0.06 0.06 0.06 0.07 0.08 0.10 0.11 0.08 0.08 0.06 0.04 0.04 0.04 0.05 0.05 0.04 0.05 0.06 0.05 0.06 0.05 0.04 0.03 0.02 0.02
0.00 0.00 0.00 0.00 0.00 0.00 0.00 0.00 0.00 0.00 0.01 0.01 0.01 0.01 0.01 0.02 0.03 0.04 0.07 0.11 0.10 0.09 0.08 0.08 0.09 0.08 0.08 0.06 0.06 0.07 0.07 0.09 0.09 0.07 0.06 0.06 0.06 0.05 0.05 0.05 0.05 0.07 0.07 0.06 0.06 0.06 0.04 0.03 0.03
0.00 0.00 0.00 0.00 0.00 0.00 0.00 0.00 0.00 0.00 0.00 0.00 0.01 0.01 0.02 0.03 0.03 0.03 0.04 0.07 0.10 0.08 0.07 0.08 0.08 0.08 0.08 0.10 0.08 0.08 0.09 0.10 0.09 0.07 0.06 0.06 0.06 0.06 0.06 0.07 0.07 0.08 0.08 0.09 0.10 0.08 0.06 0.06 0.06
0.00 0.00 0.00 0.00 0.00 0.00 0.00 0.00 0.00 0.00 0.00 0.00 0.01 0.01 0.02 0.04 0.05 0.06 0.06 0.06 0.06 0.05 0.05 0.07 0.09 0.11 0.11 0.11 0.09 0.07 0.08 0.08 0.07 0.05 0.05 0.05 0.05 0.05 0.06 0.08 0.09 0.10 0.11 0.12 0.13 0.12 0.09 0.07 0.05
0.00 0.00 0.00 0.00 0.00 0.00 0.00 0.00 0.00 0.01 0.01 0.01 0.01 0.02 0.03 0.04 0.05 0.07 0.05 0.05 0.06 0.06 0.07 0.07 0.10 0.11 0.10 0.09 0.07 0.07 0.07 0.06 0.06 0.05 0.04 0.05 0.05 0.05 0.05 0.06 0.08 0.10 0.09 0.10 0.11 0.10 0.09 0.09 0.07
0.00 0.00 0.00 0.00 0.00 0.00 0.00 0.00 0.00 0.01 0.01 0.01 0.02 0.03 0.04 0.04 0.04 0.04 0.04 0.04 0.07 0.10 0.15 0.15 0.13 0.11 0.08 0.07 0.06 0.06 0.06 0.05 0.05 0.04 0.03 0.03 0.04 0.04 0.05 0.05 0.07 0.07 0.07 0.07 0.08 0.08 0.08 0.09 0.09
0.00 0.00 0.00 0.00 0.00 0.00 0.00 0.00 0.00 0.01 0.01 0.01 0.01 0.02 0.03 0.03 0.04 0.05 0.05 0.07 0.09 0.17 0.18 0.17 0.14 0.13 0.13 0.08 0.05 0.04 0.04 0.04 0.04 0.04 0.03 0.05 0.05 0.05 0.05 0.05 0.05 0.05 0.05 0.05 0.06 0.08 0.10 0.09 0.08
0.00 0.00 0.00 0.00 0.00 0.00 0.00 0.00 0.00 0.01 0.01 0.02 0.02 0.02 0.02 0.02 0.04 0.04 0.03 0.05 0.06 0.11 0.13 0.09 0.08 0.09 0.10 0.10 0.07 0.07 0.07 0.07 0.06 0.06 0.06 0.07 0.07 0.06 0.05 0.05 0.04 0.05 0.05 0.05 0.06 0.09 0.12 0.12 0.10
0.00 0.00 0.00 0.00 0.00 0.00 0.00 0.00 0.01 0.02 0.02 0.03 0.04 0.04 0.02 0.03 0.04 0.03 0.02 0.03 0.06 0.08 0.09 0.08 0.06 0.06 0.07 0.09 0.08 0.08 0.08 0.07 0.06 0.05 0.05 0.04 0.04 0.05 0.04 0.05 0.04 0.04 0.05 0.05 0.05 0.08 0.09 0.11 0.11
0.00 0.00 0.00 0.00 0.00 0.00 0.00 0.00 0.01 0.03 0.04 0.04 0.04 0.04 0.04 0.04 0.05 0.03 0.02 0.02 0.04 0.06 0.07 0.06 0.06 0.06 0.06 0.06 0.06 0.06 0.06 0.06 0.05 0.04 0.04 0.03 0.03 0.03 0.03 0.04 0.03 0.03 0.04 0.05 0.05 0.06 0.07 0.07 0.07
0.00 0.00 0.00 0.00 0.00 0.00 0.00 0.01 0.01 0.03 0.04 0.03 0.04 0.05 0.04 0.03 0.02 0.03 0.02 0.02 0.02 0.05 0.08 0.08 0.07 0.05 0.05 0.04 0.04 0.04 0.05 0.05 0.05 0.04 0.04 0.03 0.03 0.03 0.02 0.02 0.03 0.04 0.05 0.06 0.06 0.06 0.06 0.06 0.05
0.00 0.00 0.00 0.00 0.00 0.00 0.00 0.01 0.01 0.03 0.05 0.04 0.03 0.04 0.04 0.03 0.02 0.02 0.02 0.01 0.01 0.02 0.06 0.12 0.10 0.05 0.04 0.03 0.03 0.04 0.04 0.04 0.04 0.04 0.04 0.03 0.03 0.03 0.02 0.02 0.03 0.04 0.04 0.06 0.06 0.05 0.06 0.06 0.05
0.00 0.00 0.00 0.00 0.00 0.00 0.00 0.01 0.02 0.03 0.04 0.03 0.03 0.03 0.04 0.03 0.02 0.02 0.02 0.01 0.01 0.01 0.03 0.13 0.09 0.05 0.03 0.03 0.03 0.03 0.04 0.04 0.04 0.04 0.03 0.03 0.02 0.02 0.02 0.01 0.03 0.04 0.05 0.06 0.08 0.06 0.05 0.06 0.05
0.00 0.00 0.00 0.00 0.00 0.00 0.01 0.02 0.02 0.02 0.02 0.03 0.02 0.03 0.04 0.03 0.03 0.03 0.02 0.01 0.01 0.01 0.04 0.10 0.07 0.05 0.04 0.03 0.03 0.04 0.05 0.04 0.03 0.03 0.03 0.03 0.03 0.02 0.02 0.02 0.02 0.04 0.05 0.05 0.06 0.06 0.05 0.07 0.07
0.00 0.00 0.00 0.00 0.00 0.00 0.01 0.01 0.01 0.02 0.03 0.03 0.04 0.04 0.04 0.04 0.04 0.03 0.02 0.01 0.01 0.02 0.04 0.07 0.10 0.06 0.05 0.05 0.03 0.03 0.03 0.03 0.03 0.03 0.02 0.02 0.02 0.02 0.02 0.02 0.02 0.03 0.04 0.03 0.03 0.05 0.05 0.06 0.08
0.00 0.00 0.00 0.00 0.00 0.01 0.01 0.01 0.02 0.01 0.02 0.03 0.03 0.04 0.04 0.04 0.05 0.05 0.03 0.02 0.02 0.02 0.02 0.03 0.04 0.03 0.03 0.04 0.04 0.03 0.02 0.02 0.02 0.02 0.02 0.03 0.02 0.02 0.01 0.01 0.02 0.02 0.03 0.04 0.04 0.04 0.04 0.04 0.05
0.00 0.00 0.00 0.00 0.01 0.01 0.00 0.01 0.01 0.01 0.01 0.02 0.02 0.03 0.05 0.05 0.07 0.07 0.05 0.03 0.02 0.02 0.02 0.02 0.03 0.04 0.04 0.04 0.03 0.02 0.02 0.02 0.02 0.02 0.02 0.02 0.02 0.02 0.02 0.02 0.03 0.02 0.02 0.02 0.03 0.03 0.03 0.02 0.02
0.00 0.00 0.00 0.00 0.01 0.01 0.01 0.01 0.01 0.01 0.01 0.01 0.01 0.02 0.04 0.05 0.07 0.06 0.04 0.03 0.02 0.02 0.02 0.02 0.03 0.04 0.04 0.04 0.04 0.02 0.02 0.02 0.02 0.02 0.02 0.02 0.03 0.03 0.04 0.03 0.02 0.02 0.01 0.01 0.01 0.02 0.03 0.03 0.02
0.00 0.00 0.00 0.00 0.00 0.01 0.01 0.01 0.01 0.00 0.01 0.01 0.02 0.03 0.03 0.04 0.04 0.04 0.03 0.02 0.02 0.02 0.02 0.02 0.02 0.03 0.03 0.03 0.04 0.03 0.03 0.02 0.02 0.04 0.04 0.06 0.06 0.07 0.08 0.06 0.03 0.02 0.01 0.01 0.01 0.01 0.01 0.01 0.01
0.00 0.00 0.00 0.01 0.01 0.01 0.01 0.02 0.02 0.01 0.01 0.01 0.02 0.03 0.03 0.03 0.03 0.03 0.03 0.03 0.02 0.02 0.02 0.02 0.01 0.02 0.03 0.04 0.03 0.03 0.03 0.03 0.03 0.03 0.03 0.04 0.04 0.04 0.04 0.04 0.03 0.02 0.01 0.01 0.01 0.01 0.01 0.01 0.01
0.00 0.00 0.00 0.00 0.00 0.01 0.01 0.02 0.01 0.01 0.01 0.02 0.02 0.02 0.02 0.03 0.04 0.06 0.08 0.08 0.05 0.03 0.03 0.03 0.03 0.02 0.02 0.02 0.02 0.02 0.02 0.02 0.02 0.03 0.03 0.02 0.02 0.02 0.02 0.02 0.02 0.02 0.01 0.01 0.01 0.01 0.01 0.01 0.02
0.00 0.00 0.00 0.00 0.01 0.00 0.01 0.02 0.00 0.01 0.01 0.02 0.03 0.04 0.05 0.06 0.07 0.08 0.09 0.08 0.06 0.05 0.04 0.04 0.03 0.02 0.02 0.02 0.03 0.02 0.02 0.03 0.04 0.05 0.03 0.01 0.01 0.01 0.02 0.01 0.02 0.01 0.01 0.01 0.01 0.03 0.03 0.02 0.02
MSLP
1012.29 1012.60 1013.01 1013.42 1013.73 1013.89 1013.85 1013.66 1013.38 1013.10 1012.89 1012.81 1012.88 1013.06 1013.29 1013.49 1013.61 1013.61 1013.52 1013.39 1013.30 1013.32 1013.50 1013.84 1014.32 1014.86 1015.37 1015.79 1016.07 1016.22 1016.28 1016.31 1016.39 1016.56 1016.85 1017.22 1017.63 1018.00 1018.27 1018.40 1018.41 1018.33 1018.23 1018.17 1018.20 1018.34 1018.57 1018.85 1019.12
1012.46 1012.86 1013.31 1013.71 1013.97 1014.04 1013.90 1013.61 1013.23 1012.87 1012.61 1012.52 1012.60 1012.81 1013.08 1013.33 1013.50 1013.55 1013.51 1013.42 1013.36 1013.41 1013.62 1013.99 1014.50 1015.06 1015.60 1016.05 1016.36 1016.53 1016.61 1016.66 1016.74 1016.91 1017.16 1017.49 1017.83 1018.13 1018.34 1018.42 1018.40 1018.32 1018.23 1018.22 1018.30 1018.50 1018.78 1019.08 1019.35
1012.69 1013.14 1013.58 1013.93 1014.11 1014.07 1013.83 1013.45 1013.00 1012.61 1012.36 1012.29 1012.40 1012.66 1012.98 1013.27 1013.47 1013.55 1013.52 1013.45 1013.41 1013.47 1013.69 1014.07 1014.59 1015.17 1015.74 1016.22 1016.57 1016.79 1016.91 1016.99 1017.09 1017.24 1017.47 1017.74 1018.03 1018.26 1018.41 1018.45 1018.42 1018.35 1018.32 1018.35 1018.50 1018.75 1019.06 1019.37 1019.63
1012.95 1013.39 1013.79 1014.05 1014.12 1013.98 1013.66 1013.21 1012.75 1012.38 1012.18 1012.17 1012.35 1012.66 1013.02 1013.34 1013.55 1013.62 1013.59 1013.50 1013.44 1013.49 1013.71 1014.09 1014.61 1015.20 1015.79 1016.30 1016.69 1016.96 1017.12 1017.24 1017.36 1017.52 1017.72 1017.96 1018.19 1018.38 1018.49 1018.52 1018.50 1018.48 1018.50 1018.60 1018.80 1019.09 1019.41 1019.71 1019.92
1013.18 1013.58 1013.89 1014.05 1014.01 1013.78 1013.40 1012.95 1012.53 1012.23 1012.12 1012.21 1012.47 1012.84 1013.23 1013.55 1013.73 1013.77 1013.69 1013.57 1013.48 1013.51 1013.71 1014.08 1014.60 1015.19 1015.79 1016.32 1016.74 1017.04 1017.24 1017.39 1017.53 1017.70 1017.89 1018.11 1018.31 1018.48 1018.58 1018.63 1018.64 1018.67 1018.75 1018.92 1019.16 1019.47 1019.78 1020.04 1020.19
1013.34 1013.66 1013.87 1013.92 1013.79 1013.51 1013.12 1012.72 1012.39 1012.21 1012.22 1012.43 1012.78 1013.19 1013.59 1013.88 1014.02 1014.00 1013.86 1013.69 1013.57 1013.57 1013.75 1014.10 1014.61 1015.19 1015.78 1016.30 1016.73 1017.05 1017.28 1017.45 1017.61 1017.78 1017.98 1018.19 1018.38 1018.55 1018.66 1018.74 1018.80 1018.89 1019.03 1019.23 1019.50 1019.81 1020.09 1020.28 1020.36
1013.40 1013.63 1013.74 1013.70 1013.51 1013.22 1012.88 1012.58 1012.38 1012.36 1012.52 1012.84 1013.26 1013.71 1014.08 1014.32 1014.39 1014.30 1014.11 1013.89 1013.74 1013.72 1013.88 1014.22 1014.71 1015.27 1015.82 1016.32 1016.73 1017.04 1017.26 1017.44 1017.60 1017.78 1017.98 1018.19 1018.40 1018.57 1018.71 1018.82 1018.93 1019.05 1019.23 1019.46 1019.73 1020.01 1020.24 1020.37 1020.38
1013.36 1013.51 1013.53 1013.43 1013.23 1012.98 1012.73 1012.57 1012.54 1012.69 1012.99 1013.42 1013.90 1014.35 1014.68 1014.86 1014.85 1014.69 1014.44 1014.19 1014.03 1014.01 1014.16 1014.49 1014.94 1015.46 1015.97 1016.42 1016.77 1017.04 1017.24 1017.40 1017.56 1017.74 1017.94 1018.16 1018.37 1018.55 1018.71 1018.84 1018.97 1019.12 1019.30 1019.53 1019.78 1020.02 1020.19 1020.26 1020.21
1013.24 1013.31 1013.28 1013.17 1013.00 1012.83 1012.72 1012.73 1012.88 1013.19 1013.63 1014.14 1014.64 1015.07 1015.35 1015.45 1015.38 1015.16 1014.88 1014.62 1014.46 1014.45 1014.61 1014.92 1015.34 1015.79 1016.23 1016.60 1016.88 1017.09 1017.24 1017.37 1017.51 1017.68 1017.88 1018.10 1018.30 1018.49 1018.64 1018.78 1018.91 1019.05 1019.22 1019.43 1019.64 1019.83 1019.95 1019.98 1019.88
1013.06 1013.09 1013.04 1012.95 1012.86 1012.81 1012.86 1013.04 1013.37 1013.82 1014.37 1014.93 1015.44 1015.83 1016.05 1016.09 1015.95 1015.71 1015.42 1015.18 1015.04 1015.05 1015.22 1015.51 1015.87 1016.26 1016.60 1016.88 1017.07 1017.20 1017.29 1017.38 1017.49 1017.65 1017.84 1018.04 1018.24 1018.41 1018.54 1018.66 1018.76 1018.87 1019.01 1019.17 1019.34 1019.49 1019.58 1019.57 1019.46
1012.87 1012.88 1012.85 1012.82 1012.83 1012.92 1013.13 1013.48 1013.96 1014.54 1015.16 1015.75 1016.24 1016.59 1016.75 1016.73 1016.56 1016.31 1016.05 1015.84 1015.74 1015.78 1015.95 1016.21 1016.52 1016.81 1017.05 1017.22 1017.31 1017.36 1017.39 1017.44 1017.53 1017.66 1017.84 1018.03 1018.20 1018.33 1018.43 1018.50 1018.55 1018.62 1018.71 1018.84 1018.97 1019.08 1019.15 1019.13 1019.03
1012.71 1012.72 1012.73 1012.78 1012.90 1013.14 1013.50 1014.00 1014.60 1015.26 1015.92 1016.51 1016.98 1017.28 1017.40 1017.35 1017.18 1016.95 1016.73 1016.57 1016.52 1016.58 1016.74 1016.97 1017.20 1017.40 1017.53 1017.59 1017.59 1017.56 1017.53 1017.55 1017.62 1017.74 1017.90 1018.06 1018.20 1018.29 1018.34 1018.35 1018.35 1018.36 1018.41 1018.49 1018.59 1018.70 1018.76 1018.77 1018.70
1012.60 1012.63 1012.69 1012.82 1013.06 1013.42 1013.92 1014.53 1015.22 1015.93 1016.60 1017.18 1017.61 1017.88 1017.97 1017.92 1017.77 1017.59 1017.43 1017.33 1017.32 1017.40 1017.54 1017.71 1017.86 1017.96 1017.99 1017.95 1017.87 1017.78 1017.72 1017.71 1017.77 1017.89 1018.03 1018.16 1018.26 1018.30 1018.29 1018.24 1018.18 1018.14 1018.15 1018.20 1018.29 1018.40 1018.49 1018.53 1018.51
1012.57 1012.62 1012.73 1012.94 1013.28 1013.74 1014.33 1015.02 1015.75 1016.48 1017.15 1017.70 1018.10 1018.35 1018.44 1018.42 1018.32 1018.20 1018.10 1018.06 1018.09 1018.17 1018.28 1018.39 1018.46 1018.46 1018.40 1018.28 1018.15 1018.03 1017.95 1017.94 1018.00 1018.10 1018.22 1018.33 1018.38 1018.37 1018.30 1018.19 1018.08 1018.00 1017.97 1018.01 1018.10 1018.22 1018.35 1018.43 1018.46
1012.60 1012.68 1012.84 1013.11 1013.52 1014.05 1014.70 1015.42 1016.17 1016.89 1017.53 1018.06 1018.45 1018.69 1018.81 1018.83 1018.80 1018.76 1018.73 1018.74 1018.79 1018.86 1018.94 1018.98 1018.97 1018.90 1018.77 1018.60 1018.44 1018.31 1018.24 1018.24 1018.30 1018.39 1018.49 1018.56 1018.56 1018.49 1018.36 1018.20 1018.04 1017.92 1017.87 1017.90 1018.00 1018.15 1018.30 1018.43 1018.50
1012.70 1012.79 1012.99 1013.30 1013.75 1014.33 1015.00 1015.72 1016.46 1017.15 1017.76 1018.27 1018.65 1018.92 1019.08 1019.17 1019.22 1019.25 1019.29 1019.35 1019.41 1019.47 1019.50 1019.49 1019.42 1019.29 1019.12 1018.94 1018.78 1018.66 1018.61 1018.63 1018.69 1018.77 1018.84 1018.85 1018.80 1018.66 1018.47 1018.25 1018.04 1017.89 1017.82 1017.84 1017.95 1018.11 1018.28 1018.44 1018.54
1012.82 1012.93 1013.15 1013.50 1013.97 1014.56 1015.22 1015.93 1016.63 1017.28 1017.86 1018.35 1018.75 1019.05 1019.27 1019.44 1019.57 1019.69 1019.79 1019.88 1019.95 1020.00 1020.00 1019.94 1019.83 1019.68 1019.51 1019.34 1019.20 1019.12 1019.09 1019.12 1019.18 1019.24 1019.26 1019.21 1019.08 1018.88 1018.62 1018.34 1018.08 1017.90 1017.80 1017.80 1017.90 1018.05 1018.23 1018.40 1018.52
1012.92 1013.06 1013.31 1013.68 1014.17 1014.75 1015.39 1016.06 1016.71 1017.32 1017.88 1018.36 1018.77 1019.12 1019.41 1019.66 1019.88 1020.07 1020.24 1020.36 1020.45 1020.48 1020.45 1020.37 1020.25 1020.10 1019.95 1019.82 1019.72 1019.68 1019.68 1019.72 1019.77 1019.78 1019.74 1019.62 1019.41 1019.12 1018.79 1018.45 1018.15 1017.92 1017.78 1017.76 1017.82 1017.95 1018.11 1018.27 1018.38
1012.98 1013.16 1013.44 1013.84 1014.33 1014.90 1015.51 1016.14 1016.74 1017.31 1017.84 1018.32 1018.76 1019.16 1019.53 1019.86 1020.17 1020.43 1020.65 1020.81 1020.90 1020.93 1020.90 1020.82 1020.70 1020.58 1020.46 1020.38 1020.34 1020.34 1020.37 1020.40 1020.42 1020.38 1020.27 1020.06 1019.77 1019.40 1019.00 1018.59 1018.23 1017.95 1017.77 1017.70 1017.71 1017.80 1017.92 1018.04 1018.13
1013.00 1013.22 1013.54 1013.97 1014.48 1015.04 1015.62 1016.20 1016.76 1017.29 1017.80 1018.28 1018.75 1019.21 1019.65 1020.07 1020.46 1020.79 1021.05 1021.24 1021.35 1021.39 1021.35 1021.28 1021.18 1021.09 1021.03 1021.00 1021.00 1021.04 1021.09 1021.11 1021.09 1021.00 1020.81 1020.52 1020.14 1019.70 1019.23 1018.76 1018.35 1018.01 1017.78 1017.64 1017.60 1017.62 1017.68 1017.75 1017.81
1012.97 1013.25 1013.63 1014.09 1014.61 1015.17 1015.72 1016.27 1016.79 1017.30 1017.79 1018.28 1018.78 1019.30 1019.81 1020.30 1020.76 1021.15 1021.46 1021.68 1021.80 1021.84 1021.82 1021.76 1021.68 1021.62 1021.60 1021.61 1021.66 1021.72 1021.77 1021.78 1021.72 1021.56 1021.31 1020.95 1020.51 1020.00 1019.48 1018.96 1018.50 1018.11 1017.82 1017.62 1017.50 1017.45 1017.44 1017.46 1017.48
1012.94 1013.28 1013.71 1014.21 1014.75 1015.31 1015.85 1016.37 1016.87 1017.36 1017.85 1018.35 1018.89 1019.46 1020.03 1020.59 1021.10 1021.54 1021.89 1022.13 1022.26 1022.30 1022.28 1022.22 1022.16 1022.12 1022.12 1022.16 1022.22 1022.29 1022.33 1022.32 1022.22 1022.03 1021.72 1021.32 1020.83 1020.29 1019.73 1019.18 1018.68 1018.25 1017.90 1017.64 1017.45 1017.33 1017.26 1017.21 1017.19
1012.94 1013.33 1013.81 1014.35 1014.91 1015.48 1016.02 1016.53 1017.01 1017.49 1017.99 1018.52 1019.09 1019.70 1020.33 1020.94 1021.50 1021.98 1022.34 1022.59 1022.72 1022.75 1022.71 1022.65 1022.58 1022.54 1022.54 1022.57 1022.63 1022.69 1022.72 1022.68 1022.56 1022.34 1022.01 1021.59 1021.08 1020.53 1019.96 1019.40 1018.87 1018.41 1018.02 1017.70 1017.45 1017.27 1017.13 1017.04 1016.98
1013.00 1013.43 1013.95 1014.52 1015.10 1015.68 1016.22 1016.73 1017.22 1017.72 1018.23 1018.79 1019.40 1020.05 1020.72 1021.36 1021.95 1022.45 1022.82 1023.06 1023.17 1023.17 1023.11 1023.01 1022.91 1022.85 1022.82 1022.83 1022.87 1022.91 1022.91 1022.86 1022.72 1022.49 1022.16 1021.74 1021.25 1020.71 1020.15 1019.59 1019.06 1018.58 1018.15 1017.78 1017.48 1017.24 1017.06 1016.93 1016.84
1013.15 1013.60 1014.13 1014.71 1015.31 1015.90 1016.46 1016.99 1017.51 1018.03 1018.58 1019.18 1019.82 1020.50 1021.20 1021.86 1022.46 1022.95 1023.30 1023.52 1023.59 1023.56 1023.45 1023.31 1023.17 1023.05 1022.98 1022.95 1022.95 1022.96 1022.94 1022.87 1022.73 1022.51 1022.19 1021.80 1021.34 1020.83 1020.29 1019.74 1019.21 1018.71 1018.26 1017.86 1017.51 1017.23 1017.01 1016.85 1016.74
1013.39 1013.82 1014.34 1014.93 1015.54 1016.14 1016.73 1017.30 1017.85 1018.42 1019.01 1019.65 1020.33 1021.04 1021.75 1022.42 1023.00 1023.47 1023.79 1023.96 1023.99 1023.91 1023.74 1023.55 1023.35 1023.18 1023.06 1022.98 1022.94 1022.91 1022.86 1022.79 1022.65 1022.44 1022.16 1021.80 1021.38 1020.90 1020.39 1019.86 1019.33 1018.82 1018.34 1017.91 1017.53 1017.21 1016.96 1016.77 1016.65
1013.68 1014.08 1014.58 1015.15 1015.76 1016.39 1017.00 1017.62 1018.22 1018.85 1019.50 1020.18 1020.90 1021.62 1022.33 1022.99 1023.54 1023.97 1024.25 1024.37 1024.34 1024.21 1023.99 1023.74 1023.49 1023.28 1023.10 1022.98 1022.90 1022.84 1022.78 1022.70 1022.56 1022.38 1022.12 1021.80 1021.41 1020.97 1020.48 1019.96 1019.43 1018.90 1018.40 1017.94 1017.53 1017.18 1016.90 1016.69 1016.55
1013.99 1014.34 1014.81 1015.35 1015.96 1016.61 1017.26 1017.93 1018.60 1019.29 1020.00 1020.73 1021.47 1022.20 1022.90 1023.53 1024.04 1024.42 1024.64 1024.71 1024.64 1024.46 1024.20 1023.91 1023.63 1023.38 1023.18 1023.03 1022.92 1022.83 1022.76 1022.67 1022.55 1022.38 1022.15 1021.85 1021.49 1021.07 1020.59 1020.07 1019.54 1018.99 1018.46 1017.97 1017.53 1017.16 1016.86 1016.63 1016.48
1014.30 1014.59 1015.01 1015.53 1016.13 1016.79 1017.48 1018.20 1018.94 1019.69 1020.46 1021.23 1021.99 1022.72 1023.40 1023.98 1024.45 1024.77 1024.94 1024.96 1024.85 1024.65 1024.38 1024.08 1023.79 1023.53 1023.32 1023.16 1023.04 1022.95 1022.87 1022.78 1022.66 1022.50 1022.28 1022.00 1021.65 1021.24 1020.76 1020.24 1019.69 1019.13 1018.58 1018.06 1017.60 1017.20 1016.89 1016.64 1016.48
1014.59 1014.82 1015.19 1015.68 1016.27 1016.94 1017.66 1018.43 1019.22 1020.03 1020.84 1021.63 1022.40 1023.12 1023.77 1024.31 1024.72 1024.99 1025.12 1025.11 1024.99 1024.78 1024.52 1024.24 1023.97 1023.73 1023.54 1023.39 1023.28 1023.19 1023.11 1023.02 1022.90 1022.74 1022.53 1022.25 1021.90 1021.48 1021.01 1020.48 1019.92 1019.34 1018.78 1018.25 1017.77 1017.36 1017.03 1016.78 1016.60
Thickness
5796 5802 5808 5805 5796 5791 5787 5794 5801 5801 5805 5813 5817 5814 5806 5798 5791 5781 5796 5805 5802 5798 5790 5783 5780 5779 5778 5776 5775 5773 5771 5769 5766 5764 5762 5760 5758 5757 5756 5755 5754 5752 5752 5751 5750 5749 5748 5747 5746
5799 5803 5801 5798 5787 5780 5782 5795 5796 5799 5807 5813 5811 5807 5800 5793 5795 5792 5795 5797 5796 5792 5786 5781 5776 5774 5773 5772 5770 5769 5766 5765 5763 5761 5759 5757 5756 5754 5753 5752 5751 5749 5748 5748 5747 5746 5745 5744 5743
5798 5801 5796 5791 5784 5786 5784 5793 5797 5802 5809 5808 5802 5801 5794 5786 5789 5790 5793 5793 5791 5786 5782 5776 5772 5770 5769 5767 5766 5764 5762 5760 5758 5757 5755 5753 5752 5751 5750 5749 5748 5747 5746 5745 5745 5744 5742 5742 5741
5796 5793 5792 5785 5779 5787 5791 5794 5798 5799 5802 5805 5800 5790 5787 5786 5789 5790 5790 5789 5786 5782 5778 5772 5767 5765 5763 5762 5761 5759 5757 5756 5754 5752 5751 5749 5748 5747 5746 5746 5745 5744 5743 5742 5741 5741 5740 5739 5738
5794 5789 5779 5776 5779 5786 5792 5797 5799 5797 5796 5798 5798 5784 5776 5780 5788 5787 5786 5784 5781 5779 5775 5768 5762 5760 5758 5757 5756 5754 5753 5751 5750 5748 5747 5745 5744 5743 5743 5742 5741 5741 5740 5739 5738 5737 5736 5736 5735
5784 5784 5773 5771 5775 5782 5790 5796 5798 5797 5795 5796 5794 5782 5769 5775 5779 5780 5781 5780 5778 5775 5771 5763 5758 5755 5753 5752 5751 5750 5748 5746 5745 5744 5743 5741 5740 5740 5739 5738 5737 5737 5737 5736 5735 5734 5733 5733 5733
5780 5778 5775 5776 5772 5777 5784 5794 5794 5794 5791 5792 5796 5779 5765 5768 5774 5777 5776 5775 5772 5770 5766 5761 5757 5752 5749 5747 5746 5745 5743 5741 5740 5739 5738 5737 5737 5736 5735 5734 5734 5733 5733 5733 5732 5731 5731 5730 5729
5785 5780 5771 5773 5771 5772 5783 5789 5790 5791 5785 5793 5794 5777 5764 5765 5771 5772 5771 5769 5766 5764 5762 5759 5755 5752 5748 5744 5740 5739 5737 5736 5735 5734 5734 5733 5733 5732 5731 5731 5730 5730 5730 5729 5729 5728 5728 5727 5726
5780 5771 5765 5770 5771 5772 5783 5782 5784 5790 5785 5782 5784 5783 5776 5769 5768 5765 5761 5758 5757 5755 5754 5753 5750 5747 5745 5742 5736 5734 5732 5731 5730 5730 5729 5729 5732 5732 5730 5730 5727 5726 5726 5726 5726 5725 5725 5724 5724
5772 5765 5765 5773 5779 5777 5779 5779 5779 5780 5773 5769 5768 5769 5768 5765 5761 5756 5752 5749 5747 5746 5745 5745 5743 5741 5740 5737 5733 5732 5730 5728 5728 5728 5727 5728 5729 5728 5729 5726 5724 5724 5723 5723 5723 5723 5723 5723 5727
5769 5764 5767 5771 5776 5777 5774 5773 5779 5775 5765 5766 5762 5759 5759 5756 5754 5751 5747 5744 5741 5740 5739 5738 5736 5735 5734 5731 5729 5727 5726 5724 5724 5724 5723 5723 5724 5724 5724 5724 5723 5722 5722 5724 5723 5723 5724 5726 5726
5761 5761 5766 5769 5772 5773 5771 5770 5768 5767 5764 5768 5764 5759 5753 5749 5746 5744 5740 5737 5735 5733 5732 5732 5730 5729 5726 5725 5724 5722 5721 5720 5719 5718 5718 5718 5719 5720 5721 5720 5721 5721 5721 5721 5721 5721 5722 5722 5723
5756 5756 5762 5766 5768 5769 5767 5762 5757 5753 5760 5761 5757 5752 5747 5743 5739 5737 5735 5731 5728 5726 5725 5724 5723 5721 5719 5718 5717 5717 5716 5715 5714 5713 5713 5713 5715 5715 5716 5715 5715 5716 5716 5717 5717 5718 5717 5718 5719
5756 5756 5757 5762 5762 5762 5758 5755 5752 5744 5752 5750 5746 5742 5739 5735 5732 5728 5726 5723 5721 5719 5718 5717 5716 5714 5712 5711 5710 5710 5709 5708 5708 5708 5708 5707 5709 5709 5709 5709 5709 5710 5711 5711 5712 5712 5712 5713 5714
5756 5750 5750 5755 5758 5759 5758 5742 5741 5742 5745 5741 5738 5734 5731 5728 5725 5721 5718 5716 5714 5712 5711 5709 5708 5706 5705 5705 5704 5704 5703 5703 5703 5702 5701 5701 5701 5702 5703 5704 5704 5705 5705 5705 5706 5707 5707 5707 5709
5751 5748 5742 5747 5754 5754 5753 5733 5734 5740 5738 5732 5730 5727 5723 5719 5718 5714 5711 5709 5707 5706 5704 5703 5702 5700 5699 5699 5698 5698 5697 5697 5696 5695 5695 5694 5694 5694 5696 5698 5699 5698 5699 5700 5701 5702 5702 5702 5702
5743 5743 5742 5739 5751 5752 5751 5736 5732 5736 5733 5726 5723 5720 5716 5712 5709 5707 5705 5702 5701 5699 5698 5696 5695 5695 5694 5693 5692 5692 5690 5689 5689 5688 5688 5687 5688 5688 5690 5691 5691 5692 5693 5694 5696 5697 5695 5696 5696
5738 5742 5739 5738 5744 5747 5744 5735 5729 5731 5728 5723 5720 5716 5711 5706 5702 5701 5698 5696 5695 5694 5692 5690 5689 5687 5688 5688 5686 5685 5684 5683 5682 5681 5680 5681 5681 5681 5683 5685 5684 5686 5687 5687 5687 5687 5687 5689 5689
5745 5742 5737 5738 5743 5741 5736 5728 5723 5724 5722 5718 5714 5710 5706 5702 5698 5696 5693 5691 5689 5687 5686 5683 5681 5680 5681 5681 5680 5678 5677 5676 5675 5674 5672 5673 5673 5674 5675 5678 5677 5678 5679 5679 5680 5680 5681 5682 5683
5740 5735 5732 5730 5735 5735 5727 5721 5721 5718 5717 5716 5711 5706 5702 5697 5692 5689 5687 5686 5683 5680 5679 5677 5675 5674 5673 5673 5672 5670 5669 5668 5666 5665 5664 5664 5665 5666 5668 5667 5670 5670 5670 5671 5671 5671 5673 5675 5676
5735 5736 5734 5728 5727 5730 5721 5710 5711 5713 5713 5711 5708 5704 5700 5694 5688 5684 5682 5680 5678 5674 5672 5670 5668 5667 5665 5666 5667 5665 5662 5661 5660 5658 5657 5656 5657 5658 5658 5659 5660 5661 5663 5663 5662 5663 5664 5666 5668
5729 5740 5737 5729 5724 5722 5722 5711 5714 5712 5706 5703 5701 5698 5695 5690 5685 5681 5677 5674 5671 5668 5666 5664 5661 5660 5659 5659 5659 5656 5654 5652 5649 5649 5648 5648 5648 5649 5649 5650 5651 5652 5654 5654 5655 5656 5656 5657 5659
5734 5739 5736 5732 5729 5723 5720 5716 5719 5714 5704 5702 5699 5695 5691 5685 5680 5675 5672 5668 5665 5663 5660 5657 5654 5652 5650 5649 5648 5647 5645 5643 5642 5640 5639 5639 5639 5639 5639 5640 5641 5642 5644 5644 5645 5646 5648 5650 5650
5734 5732 5728 5729 5728 5710 5719 5713 5712 5713 5710 5706 5699 5693 5685 5680 5674 5669 5665 5662 5659 5657 5654 5651 5647 5643 5641 5639 5639 5637 5634 5633 5632 5631 5631 5631 5631 5630 5629 5631 5631 5632 5633 5634 5636 5637 5640 5640 5641
5730 5721 5710 5707 5708 5712 5720 5711 5707 5713 5713 5708 5699 5689 5681 5675 5668 5663 5659 5656 5653 5649 5646 5643 5639 5635 5632 5631 5629 5628 5625 5624 5623 5622 5621 5621 5621 5620 5619 5619 5620 5621 5622 5624 5626 5628 5630 5631 5632
5725 5724 5708 5698 5703 5713 5710 5705 5704 5707 5706 5703 5697 5687 5677 5670 5664 5658 5654 5651 5647 5642 5638 5635 5632 5628 5625 5623 5621 5619 5618 5618 5616 5612 5612 5610 5610 5609 5607 5608 5609 5610 5612 5614 5615 5619 5620 5621 5622
5721 5722 5728 5716 5711 5704 5707 5704 5699 5697 5693 5690 5684 5677 5671 5664 5657 5652 5648 5645 5640 5636 5631 5628 5624 5620 5618 5616 5614 5611 5608 5607 5605 5602 5602 5601 5599 5598 5597 5597 5598 5599 5600 5603 5605 5608 5610 5612 5614
5725 5723 5714 5708 5693 5690 5699 5698 5694 5688 5683 5679 5673 5669 5665 5658 5651 5646 5641 5637 5633 5629 5624 5620 5617 5614 5611 5609 5607 5604 5601 5598 5596 5595 5591 5590 5589 5588 5587 5588 5589 5589 5591 5593 5596 5599 5600 5602 5605
5711 5711 5709 5710 5706 5693 5687 5690 5696 5690 5684 5676 5670 5665 5660 5652 5645 5639 5633 5629 5626 5621 5618 5614 5610 5607 5604 5601 5598 5595 5593 5590 5588 5586 5583 5582 5580 5580 5580 5580 5580 5581 5583 5584 5586 5589 5591 5594 5596
5712 5709 5705 5694 5693 5697 5692 5682 5688 5688 5683 5676 5667 5659 5653 5646 5640 5633 5628 5623 5620 5616 5612 5608 5604 5601 5597 5593 5589 5587 5585 5582 5580 5577 5575 5574 5573 5573 5573 5573 5573 5574 5575 5576 5578 5580 5583 5585 5587